Location: Barcelona
(41.3830°N, 2.1830°E)
Time: 21:11:19
(UTC+01:00)

ISS - Pass Details

Date: 24 March 2017
Orbit: 399 x 409 km, 51.6° (Epoch: 24 March)

Event Time Altitude Azimuth Distance (km) Brightness Sun altitude
Exits shadow 05:13:26 30° 179° (S) 763 -2.6 -18.2°
Drops below altitude 10° 05:15:31 10° 152° (SSE) 1,465 -0.9 -17.8°
Sets 05:17:40 0° 144° (SE) 2,322 0.3 -17.4°
